[[{"header":{"parameterUnit":"m.s-1","parameterCategory":2,"la1":30.2991,"la2":30.254,"lo1":-89.0895,"lo2":-89.0444,"dy":0.0017,"dx":0.0017,"nx":28,"ny":28,"refTime":"2024-08-19T03:00:00:Z","depth":"0","parameterNumber":2,"parameterNumberName":"U-component_of_CURRENTS"},"data":[0,0,0,0,0,0,0,0,0,0,0,0,0,0,0,0,0,0,0,0,0,0,0,0,0,0,0,0,0,0,0,0,0,0,0,0,0,0,0,0,0,0,0,0,0,0,0,0,0,0,0,0,0,0,0,0,0,0,-0.2719,-0.272,0,-0.2915,-0.2917,-0.2919,-0.2949,-0.2947,-0.2945,-0.2943,-0.2929,-0.2931,-0.2932,0,0,0,0,0,0,0,0,0,0,0,0,0,-0.2542,-0.2544,-0.2718,-0.2721,-0.2723,-0.2914,-0.2917,-0.292,-0.2949,-0.2947,-0.2944,-0.2942,-0.2929,-0.293,-0.2932,0,0,0,0,0,0,0,0,0,0,0,0,0,-0.2668,-0.2545,-0.2718,-0.2759,-0.2765,-0.2914,-0.2917,-0.2921,-0.295,-0.2947,-0.2944,-0.2941,-0.2928,-0.293,-0.2932,-0.3004,0,0,-0.2939,-0.294,0,0,0,0,0,0,0,0,-0.266,-0.2674,-0.2751,-0.2757,-0.2763,-0.2903,-0.285,-0.2938,-0.295,-0.2881,-0.2943,-0.294,-0.2902,-0.2906,-0.2955,-0.3003,-0.3003,-0.2939,-0.294,-0.2941,-0.2942,0,0,0,0,0,0,0,-0.2651,-0.2667,-0.2798,-0.2753,-0.2761,-0.2827,-0.284,-0.2869,-0.2903,-0.2887,-0.2889,-0.2909,-0.2903,-0.2953,-0.2954,-0.3003,-0.2939,-0.2941,-0.2942,-0.2943,-0.3045,-0.3046,0,0,0,0,0,0,-0.2618,-0.2658,-0.2792,-0.2804,-0.2701,-0.2832,-0.2847,-0.2862,-0.2907,-0.2913,-0.2911,-0.291,-0.2951,-0.2952,-0.2953,-0.3007,-0.2941,-0.2943,-0.2945,-0.3043,-0.3045,-0.3046,0,0,0,0,0,0,-0.2614,-0.2628,-0.2784,-0.2734,-0.2758,-0.2836,-0.2855,-0.2868,-0.2911,-0.2928,-0.2929,-0.2939,-0.2949,-0.295,-0.2987,-0.3007,-0.2944,-0.2946,-0.3042,-0.3044,-0.3046,-0.3135,0,0,0,0,0,0,-0.2608,-0.2625,-0.2635,-0.2732,-0.2759,-0.2878,-0.2858,-0.2873,-0.2927,-0.2926,-0.2952,-0.2949,-0.2946,-0.2985,-0.299,-0.3009,-0.2948,-0.304,-0.3042,-0.3045,-0.313,-0.314,-0.3148,0,0,0,0,0,-0.2601,-0.2626,-0.2634,-0.2651,-0.2766,-0.288,-0.2902,-0.2949,-0.293,-0.2972,-0.2982,-0.2947,-0.3003,-0.2989,-0.2994,-0.3014,-0.3038,-0.3042,-0.3045,-0.3126,-0.3138,-0.3148,0,0,0,0,0,0,-0.2564,-0.2634,-0.2644,-0.2691,-0.2778,-0.2884,-0.2916,-0.2956,-0.3007,-0.2982,-0.2988,-0.2989,-0.3022,-0.3012,-0.2996,-0.3048,-0.3006,-0.3011,-0.3066,-0.3077,-0.3086,-0.3074,-0.295,0,0,0,0,0,-0.2558,-0.2581,-0.2677,-0.2714,-0.2745,-0.2831,-0.2881,-0.2922,-0.2977,-0.2998,-0.3023,-0.3029,-0.3048,-0.3055,-0.3073,-0.3119,-0.3105,-0.3126,-0.3135,-0.3143,-0.3136,-0.3152,-0.3162,-0.3057,-0.3057,-0.3057,0,0,-0.2553,-0.2593,-0.2608,-0.2706,-0.2759,-0.2837,-0.2853,-0.2928,-0.2995,-0.2984,-0.306,-0.3067,-0.3067,-0.3116,-0.3127,-0.3105,-0.317,-0.3147,-0.3154,-0.3142,-0.3156,-0.3167,-0.3176,-0.3059,-0.3058,-0.3058,0,0,-0.2561,-0.2585,-0.2612,-0.2681,-0.2769,-0.2838,-0.2857,-0.297,-0.3012,-0.3101,-0.3093,-0.3126,-0.3168,-0.3188,-0.3193,-0.3264,-0.3218,-0.3248,-0.3287,-0.3304,-0.3312,-0.332,-0.3334,-0.3341,-0.3251,-0.3251,-0.3251,0,-0.2551,-0.259,-0.2646,-0.27,-0.2745,-0.2832,-0.2889,-0.2976,-0.3095,-0.3134,-0.3118,-0.3203,-0.3206,-0.3262,-0.3278,-0.3285,-0.3274,-0.325,-0.3316,-0.3323,-0.3329,-0.3341,-0.3348,-0.3256,-0.3255,-0.3255,-0.3254,0,-0.2593,-0.2622,-0.2642,-0.2724,-0.2801,-0.2858,-0.2974,-0.3061,-0.3108,-0.3188,-0.3262,-0.3293,-0.3332,-0.3342,-0.3328,-0.3375,-0.3349,-0.3328,-0.3289,-0.3345,-0.3354,-0.336,-0.3263,-0.3261,-0.3259,-0.3258,0,0,-0.255,-0.2647,-0.2647,-0.2676,-0.2802,-0.2872,-0.2987,-0.3118,-0.3197,-0.3288,-0.3367,-0.3415,-0.3425,-0.343,-0.3429,-0.3444,-0.3488,-0.3396,-0.3394,-0.341,-0.3515,-0.3343,-0.3333,-0.347,-0.3471,-0.3472,-0.3511,0,-0.255,-0.262,-0.2682,-0.276,-0.2802,-0.2913,-0.3024,-0.3158,-0.3263,-0.3376,-0.3416,-0.3483,-0.3462,-0.3471,-0.3491,-0.3486,-0.3504,-0.3478,-0.3457,-0.3456,-0.3297,-0.3334,-0.3094,-0.3094,-0.3517,-0.3518,-0.3519,0,-0.2559,-0.2598,-0.2657,-0.2761,-0.279,-0.2864,-0.303,-0.3141,-0.3325,-0.3407,-0.3489,-0.3532,-0.3585,-0.3543,-0.3579,-0.3555,-0.3534,-0.3529,-0.353,-0.3334,-0.3293,-0.3103,-0.3089,-0.3049,-0.3528,-0.3527,-0.3526,0,-0.2487,-0.2575,-0.2606,-0.2642,-0.2796,-0.2841,-0.2928,-0.3128,-0.3227,-0.3406,-0.3485,-0.3575,-0.3595,-0.3606,-0.3598,-0.3584,-0.3616,-0.3603,-0.3442,-0.3431,-0.3202,-0.3166,-0.3138,-0.3618,-0.3618,-0.3618,-0.3618,0,-0.2452,-0.2473,-0.2563,-0.2582,-0.2645,-0.2766,-0.2866,-0.3012,-0.3185,-0.3287,-0.3455,-0.3527,-0.3601,-0.3637,-0.3624,-0.3541,-0.3641,-0.3443,-0.3423,-0.3226,-0.3194,-0.3125,-0.3166,-0.3619,-0.3619,-0.3619,-0.3618,0,-0.2369,-0.2428,-0.247,-0.2579,-0.2609,-0.2648,-0.2791,-0.2879,-0.3073,-0.3204,-0.3249,-0.3472,-0.3513,-0.3585,-0.3606,-0.3539,-0.3418,-0.3454,-0.3213,-0.316,-0.2913,-0.2967,-0.2918,-0.2845,-0.327,-0.3266,-0.3263,0,-0.233,-0.234,-0.243,-0.2442,-0.2471,-0.2537,-0.2597,-0.2794,-0.2882,-0.3147,-0.3184,-0.3314,-0.3355,-0.3366,-0.3276,-0.3227,-0.3274,-0.2996,-0.2912,-0.2854,-0.2904,-0.2955,-0.2904,-0.2674,-0.2666,-0.266,-0.2654,0,-0.2238,-0.227,-0.2299,-0.2327,-0.2356,-0.2409,-0.2484,-0.2541,-0.2764,-0.2872,-0.2991,-0.3039,-0.3067,-0.2901,-0.2861,-0.2814,-0.2866,-0.2853,-0.2862,-0.2475,-0.2464,-0.2396,-0.2722,-0.2596,-0.2602,-0.2606,-0.2609,-0.2611,-0.2147,-0.2144,-0.2174,-0.2192,-0.2228,-0.2242,-0.2222,-0.2314,-0.2387,-0.2485,-0.2636,-0.263,-0.2585,-0.2457,-0.242,-0.2238,-0.2408,-0.2158,-0.2249,-0.2323,-0.2174,-0.2355,-0.2153,-0.2156,-0.2158,-0.2161,-0.2163,0,-0.2018,-0.2024,-0.2034,-0.2041,-0.201,-0.2082,-0.2123,-0.2074,-0.205,-0.2133,-0.214,-0.2078,-0.1907,-0.1934,-0.1758,-0.1661,-0.1661,-0.1683,-0.1722,-0.1714,-0.1901,-0.1787,-0.141,-0.141,-0.141,-0.141,-0.1411,-0.1411,-0.1946,-0.1904,-0.1914,-0.1809,-0.1803,-0.1701,-0.1677,-0.1633,-0.164,-0.1565,-0.1547,-0.1599,-0.1647,-0.166,-0.1499,-0.1423,-0.146,-0.137,-0.1529,-0.1671,-0.1724,-0.1774,-0.1675,-0.128,-0.128,-0.1202,-0.1202,-0.1201]},{"header":{"parameterUnit":"m.s-1","parameterCategory":2,"la1":30.2991,"la2":30.254,"lo1":-89.0895,"lo2":-89.0444,"dy":0.0017,"dx":0.0017,"nx":28,"ny":28,"refTime":"2024-08-19T03:00:00:Z","depth":"0","parameterNumber":3,"parameterNumberName":"V-component_of_CURRENTS"},"data":[0,0,0,0,0,0,0,0,0,0,0,0,0,0,0,0,0,0,0,0,0,0,0,0,0,0,0,0,0,0,0,0,0,0,0,0,0,0,0,0,0,0,0,0,0,0,0,0,0,0,0,0,0,0,0,0,0,0,-0.0253,-0.0252,0,-0.0181,-0.018,-0.0179,-0.0116,-0.0116,-0.0115,-0.0115,0.0073,0.0077,0.0082,0,0,0,0,0,0,0,0,0,0,0,0,0,-0.0258,-0.0259,-0.0253,-0.0252,-0.0252,-0.0181,-0.018,-0.0178,-0.0116,-0.0116,-0.0115,-0.0115,0.0071,0.0077,0.0082,0,0,0,0,0,0,0,0,0,0,0,0,0,-0.0225,-0.0259,-0.0253,-0.0215,-0.0211,-0.0181,-0.018,-0.0178,-0.0116,-0.0116,-0.0115,-0.0115,0.0069,0.0076,0.0083,0.0114,0,0,0.0104,0.0107,0,0,0,0,0,0,0,0,-0.0227,-0.0224,-0.0221,-0.0217,-0.0213,-0.016,-0.0113,-0.0076,-0.0116,-0.0148,-0.0115,-0.0114,0.0003,0.0015,0.0031,0.0123,0.0131,0.0105,0.0109,0.0112,0.0114,0,0,0,0,0,0,0,-0.023,-0.0227,-0.0221,-0.022,-0.0216,-0.0175,-0.017,-0.0106,-0.0072,-0.0146,-0.0142,-0.014,0.0006,0.0024,0.0036,0.0134,0.0105,0.0111,0.0115,0.0118,0.0309,0.031,0,0,0,0,0,0,-0.0251,-0.023,-0.0223,-0.0219,-0.0223,-0.0176,-0.017,-0.0175,-0.0075,-0.0061,-0.014,-0.0137,0.0012,0.0028,0.0043,0.01,0.0112,0.0118,0.0122,0.0308,0.0309,0.031,0,0,0,0,0,0,-0.0251,-0.0251,-0.0226,-0.0225,-0.0219,-0.0177,-0.0182,-0.0174,-0.0162,-0.0073,-0.0056,-0.0139,0.0013,0.0033,0.0109,0.0107,0.0122,0.0128,0.0307,0.0309,0.031,0.0206,0,0,0,0,0,0,-0.0252,-0.0252,-0.0257,-0.0227,-0.022,-0.0222,-0.0183,-0.0173,-0.0163,-0.0158,-0.0066,-0.0048,0.0015,0.0098,0.0116,0.0117,0.0133,0.0306,0.0308,0.0309,0.0208,0.0203,0.02,0,0,0,0,0,-0.0252,-0.0276,-0.0258,-0.0257,-0.0231,-0.0223,-0.0216,-0.018,-0.0164,-0.0166,-0.0089,-0.0051,0.0122,0.0104,0.0125,0.0128,0.0305,0.0307,0.0309,0.021,0.0204,0.02,0,0,0,0,0,0,-0.0286,-0.0271,-0.0251,-0.0268,-0.025,-0.0214,-0.0213,-0.0192,-0.0136,-0.0128,-0.0039,-0.0015,0.005,0.0109,0.0087,0.0192,0.022,0.0226,0.0137,0.0133,0.0128,0.0098,0.0139,0,0,0,0,0,-0.0296,-0.0304,-0.0281,-0.0293,-0.0288,-0.0251,-0.0242,-0.0225,-0.0177,-0.0154,-0.0085,-0.0002,0.0075,0.0117,0.0189,0.0245,0.0268,0.0264,0.0259,0.0255,0.0247,0.0276,0.0272,0.0317,0.0317,0.0317,0,0,-0.0311,-0.0304,-0.0307,-0.0299,-0.0278,-0.0281,-0.0243,-0.0245,-0.0235,-0.0139,-0.0093,-0.0019,0.0087,0.0151,0.0185,0.02,0.0253,0.0258,0.0253,0.0247,0.0277,0.0273,0.0268,0.0319,0.0318,0.0318,0,0,-0.0356,-0.0341,-0.0364,-0.0355,-0.0341,-0.0314,-0.0322,-0.029,-0.026,-0.0212,-0.0134,-0.0061,0.0048,0.0124,0.0178,0.0196,0.0225,0.0219,0.0175,0.0202,0.0198,0.0194,0.0196,0.0193,0.0219,0.0219,0.0219,0,-0.0374,-0.0399,-0.0369,-0.0389,-0.0386,-0.0336,-0.0359,-0.0321,-0.0265,-0.024,-0.0209,-0.0051,0.0037,0.0121,0.0137,0.0183,0.019,0.0178,0.0191,0.0188,0.0186,0.019,0.0188,0.0214,0.0215,0.0215,0.0216,0,-0.0436,-0.045,-0.0465,-0.0464,-0.0456,-0.047,-0.0424,-0.0401,-0.0356,-0.0313,-0.0235,-0.0115,-0.0026,0.002,0.0091,0.013,0.0134,0.0172,0.0189,0.0174,0.018,0.018,0.0208,0.0209,0.0211,0.0212,0,0,-0.0493,-0.0505,-0.0512,-0.0523,-0.05,-0.0507,-0.0482,-0.0449,-0.0444,-0.0359,-0.0341,-0.0185,-0.0135,-0.0069,0.0022,0.0065,0.0065,0.0106,0.0109,0.008,0.0093,0.0193,0.0203,0.0091,0.0091,0.0091,0.0094,0,-0.0548,-0.0605,-0.059,-0.0628,-0.0649,-0.0597,-0.0586,-0.0547,-0.049,-0.0457,-0.0331,-0.0273,-0.0164,-0.0131,-0.0069,0.0034,0.0063,0.0059,0.0138,0.014,0.0208,0.0207,0.0267,0.0284,0.0094,0.0094,0.0094,0,-0.0615,-0.0643,-0.0697,-0.0714,-0.072,-0.0728,-0.0708,-0.069,-0.0618,-0.0582,-0.0501,-0.0414,-0.031,-0.0234,-0.0086,-0.0102,-0.0017,0.0059,0.0062,0.0193,0.0241,0.0278,0.0292,0.0455,0.0095,0.0095,0.0095,0,-0.0677,-0.0718,-0.0761,-0.0767,-0.0775,-0.0784,-0.0776,-0.0727,-0.0724,-0.0661,-0.0668,-0.0531,-0.0482,-0.0347,-0.0151,-0.014,-0.0011,0.0023,0.0185,0.0191,0.0281,0.0297,0.0444,0.0098,0.0098,0.0098,0.0098,0,-0.0741,-0.0778,-0.0795,-0.0823,-0.0881,-0.0853,-0.0888,-0.0869,-0.0844,-0.0858,-0.0738,-0.072,-0.0513,-0.0394,-0.0218,-0.0004,-0.0061,0.0174,0.0207,0.0249,0.0261,0.0442,0.05,0.0098,0.0098,0.0098,0.0098,0,-0.08,-0.0808,-0.0869,-0.0899,-0.0914,-0.0952,-0.0977,-0.1001,-0.0975,-0.0996,-0.0989,-0.088,-0.0706,-0.0482,-0.0265,-0.0097,0.0216,0.0186,0.0217,0.0258,0.058,0.0629,0.0793,0.09,0.0346,0.0349,0.0351,0,-0.0835,-0.087,-0.0938,-0.0985,-0.1001,-0.1045,-0.1083,-0.1069,-0.109,-0.1078,-0.11,-0.0962,-0.0813,-0.0451,-0.0123,0.0191,0.0317,0.0393,0.0456,0.0613,0.069,0.0717,0.0796,0.0511,0.0514,0.0517,0.0519,0,-0.0901,-0.0922,-0.0975,-0.1075,-0.1131,-0.119,-0.1232,-0.1271,-0.1255,-0.1253,-0.12,-0.1077,-0.0711,-0.0299,0.0108,0.0297,0.0535,0.0461,0.0616,0.0835,0.0879,0.0992,0.0469,0.0544,0.0541,0.054,0.0538,0.0537,-0.0948,-0.1005,-0.1075,-0.1166,-0.1237,-0.1312,-0.1345,-0.1367,-0.1383,-0.1314,-0.1221,-0.0963,-0.0431,0.019,0.0398,0.0832,0.0771,0.0958,0.0996,0.1003,0.1149,0.0683,0.0816,0.0815,0.0815,0.0814,0.0813,0,-0.1,-0.1063,-0.1161,-0.1263,-0.1344,-0.1359,-0.1428,-0.1419,-0.1408,-0.1245,-0.1093,-0.0488,0.0047,0.0525,0.1125,0.1351,0.1388,0.1434,0.1475,0.1527,0.1111,0.1167,0.1393,0.1393,0.1393,0.1393,0.1392,0.1392,-0.1029,-0.1129,-0.1181,-0.1322,-0.1386,-0.1447,-0.147,-0.1433,-0.1308,-0.096,-0.059,-0.0286,0.0336,0.1222,0.1736,0.1776,0.1952,0.193,0.2018,0.1724,0.1682,0.1641,0.1711,0.2048,0.2048,0.2435,0.2438,0.2441]}],[{"header":{"parameterUnit":"m.s-1","parameterCategory":2,"la1":30.2991,"la2":30.254,"lo1":-89.0895,"lo2":-89.0444,"dy":0.0017,"dx":0.0017,"nx":28,"ny":28,"refTime":"2024-08-19T03:00:00:Z","depth":"2","parameterNumber":2,"parameterNumberName":"U-component_of_CURRENTS"},"data":[0,0,0,0,0,0,0,0,0,0,0,0,0,0,0,0,0,0,0,0,0,0,0,0,0,0,0,0,0,0,0,0,0,0,0,0,0,0,0,0,0,0,0,0,0,0,0,0,0,0,0,0,0,0,0,0,0,0,-0.2411,-0.2412,0,-0.2492,-0.2493,-0.2494,-0.2483,-0.2481,-0.248,-0.2479,-0.2572,-0.2576,-0.258,0,0,0,0,0,0,0,0,0,0,0,0,0,-0.2287,-0.2289,-0.2411,-0.2412,-0.2413,-0.2492,-0.2493,-0.2494,-0.2483,-0.2481,-0.248,-0.2478,-0.2571,-0.2576,-0.258,0,0,0,0,0,0,0,0,0,0,0,0,0,-0.2351,-0.229,-0.2411,-0.2417,-0.2419,-0.2492,-0.2493,-0.2494,-0.2483,-0.2481,-0.2479,-0.2477,-0.257,-0.2575,-0.2581,-0.2654,0,0,-0.2598,-0.26,0,0,0,0,0,0,0,0,-0.2348,-0.2356,-0.2415,-0.2417,-0.2419,-0.2476,-0.2484,-0.2549,-0.2484,-0.2458,-0.2479,-0.2476,-0.2543,-0.2551,-0.2569,-0.2659,-0.2663,-0.2598,-0.2602,-0.2604,-0.2605,0,0,0,0,0,0,0,-0.2343,-0.2352,-0.2443,-0.2417,-0.2419,-0.243,-0.2437,-0.2496,-0.2511,-0.246,-0.246,-0.247,-0.2544,-0.2564,-0.2572,-0.2664,-0.2598,-0.2603,-0.2606,-0.2609,-0.286,-0.2864,0,0,0,0,0,0,-0.2335,-0.2349,-0.244,-0.2445,-0.2378,-0.2434,-0.2441,-0.2459,-0.251,-0.2516,-0.2472,-0.2469,-0.2556,-0.2565,-0.2575,-0.2647,-0.2604,-0.2609,-0.2612,-0.2857,-0.2861,-0.2865,0,0,0,0,0,0,-0.2332,-0.2342,-0.2437,-0.2398,-0.2411,-0.2438,-0.2458,-0.2462,-0.248,-0.2518,-0.2524,-0.2485,-0.2554,-0.2567,-0.2663,-0.2651,-0.2612,-0.2617,-0.2853,-0.2858,-0.2863,-0.2802,0,0,0,0,0,0,-0.2328,-0.2341,-0.2353,-0.2398,-0.2413,-0.248,-0.246,-0.2465,-0.2489,-0.2487,-0.2533,-0.2539,-0.2554,-0.2655,-0.2669,-0.2657,-0.2621,-0.2849,-0.2856,-0.2861,-0.28,-0.2805,-0.2809,0,0,0,0,0,-0.2323,-0.2348,-0.2354,-0.2365,-0.2428,-0.2481,-0.249,-0.2501,-0.2492,-0.2509,-0.2565,-0.2537,-0.2703,-0.2664,-0.2679,-0.2668,-0.2846,-0.2854,-0.2861,-0.2798,-0.2804,-0.2808,0,0,0,0,0,0,-0.23,-0.2351,-0.2357,-0.2395,-0.2434,-0.2479,-0.2494,-0.2509,-0.2566,-0.2564,-0.2596,-0.2609,-0.269,-0.2716,-0.2671,-0.277,-0.2765,-0.2776,-0.2712,-0.2718,-0.2722,-0.2663,-0.2626,0,0,0,0,0,-0.2303,-0.2328,-0.2381,-0.2407,-0.2426,-0.2463,-0.2485,-0.2499,-0.2553,-0.2572,-0.2611,-0.2668,-0.2737,-0.2755,-0.2827,-0.2882,-0.2887,-0.2889,-0.2893,-0.2896,-0.2867,-0.2917,-0.292,-0.289,-0.289,-0.2889,0,0,-0.2298,-0.2329,-0.2342,-0.2403,-0.2428,-0.2467,-0.2471,-0.2507,-0.2534,-0.2579,-0.2635,-0.2699,-0.2769,-0.2834,-0.2867,-0.2843,-0.2909,-0.2905,-0.2906,-0.2875,-0.2924,-0.2926,-0.2928,-0.2895,-0.2894,-0.2893,0,0,-0.2306,-0.2331,-0.2358,-0.2394,-0.2442,-0.2469,-0.2482,-0.2539,-0.2553,-0.2641,-0.2674,-0.2727,-0.2843,-0.2857,-0.2889,-0.2967,-0.2951,-0.3002,-0.2939,-0.2989,-0.2989,-0.2989,-0.298,-0.298,-0.2975,-0.2975,-0.2975,0,-0.2298,-0.2336,-0.2373,-0.2412,-0.2432,-0.247,-0.2501,-0.2537,-0.2618,-0.2628,-0.2657,-0.2794,-0.2841,-0.2882,-0.2905,-0.2961,-0.2984,-0.2897,-0.2985,-0.2986,-0.2987,-0.2977,-0.2978,-0.2973,-0.2973,-0.2973,-0.2974,0,-0.233,-0.2359,-0.2375,-0.2428,-0.2464,-0.2493,-0.2545,-0.2577,-0.261,-0.2639,-0.2706,-0.2783,-0.2846,-0.2872,-0.2911,-0.2938,-0.2949,-0.2998,-0.2945,-0.2984,-0.2974,-0.2976,-0.297,-0.2971,-0.2971,-0.2972,0,0,-0.2295,-0.238,-0.2379,-0.2405,-0.2468,-0.2502,-0.254,-0.2578,-0.2597,-0.2657,-0.2687,-0.2767,-0.2783,-0.2821,-0.2861,-0.2875,-0.2899,-0.2929,-0.2933,-0.287,-0.2977,-0.2797,-0.2781,-0.2974,-0.2974,-0.2975,-0.2955,0,-0.2295,-0.2356,-0.2399,-0.2444,-0.2475,-0.2515,-0.2555,-0.2593,-0.2634,-0.2682,-0.2702,-0.2771,-0.2772,-0.2811,-0.2824,-0.2916,-0.2906,-0.2896,-0.2991,-0.2991,-0.2787,-0.2778,-0.2576,-0.2526,-0.2957,-0.2957,-0.2957,0,-0.2298,-0.2336,-0.238,-0.2448,-0.2465,-0.25,-0.2541,-0.2589,-0.2641,-0.2676,-0.2696,-0.2748,-0.2764,-0.2797,-0.2852,-0.2858,-0.2898,-0.2937,-0.294,-0.2783,-0.2813,-0.2569,-0.2513,-0.296,-0.296,-0.296,-0.296,0,-0.2238,-0.2316,-0.2342,-0.2366,-0.2456,-0.247,-0.2514,-0.2568,-0.2607,-0.2664,-0.2703,-0.2733,-0.2782,-0.2825,-0.2874,-0.2893,-0.2944,-0.2992,-0.2838,-0.2826,-0.267,-0.264,-0.3015,-0.3015,-0.3015,-0.3015,-0.3015,0,-0.2207,-0.2228,-0.2316,-0.233,-0.2367,-0.2442,-0.248,-0.2526,-0.2601,-0.2637,-0.269,-0.2716,-0.2806,-0.2843,-0.2876,-0.2826,-0.2939,-0.2791,-0.2802,-0.2643,-0.2613,-0.3017,-0.3018,-0.3015,-0.3015,-0.3015,-0.3015,0,-0.2132,-0.219,-0.2231,-0.2315,-0.2342,-0.2367,-0.2463,-0.2489,-0.2569,-0.2623,-0.2644,-0.2728,-0.2738,-0.2777,-0.2857,-0.2809,-0.2804,-0.2765,-0.2526,-0.2505,-0.2648,-0.2647,-0.2572,-0.2565,-0.2559,-0.2555,-0.2551,0,-0.2098,-0.2111,-0.2201,-0.2216,-0.2248,-0.2304,-0.2337,-0.2449,-0.2484,-0.2603,-0.2618,-0.2661,-0.2624,-0.2614,-0.256,-0.2504,-0.2656,-0.2288,-0.2257,-0.258,-0.2601,-0.2608,-0.2615,-0.2043,-0.2035,-0.2028,-0.2023,0,-0.2017,-0.205,-0.2079,-0.2121,-0.2154,-0.2203,-0.2263,-0.2296,-0.2418,-0.2449,-0.2477,-0.2459,-0.2423,-0.2243,-0.2161,-0.2124,-0.2269,-0.2148,-0.2588,-0.2164,-0.2073,-0.2096,-0.2122,-0.1966,-0.1972,-0.1976,-0.1979,-0.1982,-0.1938,-0.1939,-0.1975,-0.2002,-0.2043,-0.2062,-0.2043,-0.2112,-0.2136,-0.2139,-0.2235,-0.2121,-0.2114,-0.1831,-0.1751,-0.1695,-0.1857,-0.1796,-0.182,-0.185,-0.1769,-0.1672,-0.1472,-0.1475,-0.1477,-0.1479,-0.1481,0,-0.1825,-0.1835,-0.1852,-0.1871,-0.185,-0.1922,-0.1955,-0.1903,-0.1853,-0.1867,-0.1821,-0.1604,-0.1437,-0.1456,-0.1257,-0.1208,-0.1263,-0.1173,-0.1254,-0.1308,-0.1357,-0.1258,-0.0822,-0.082,-0.0819,-0.0817,0,0,-0.1762,-0.173,-0.1741,-0.1662,-0.1667,-0.1586,-0.1563,-0.1511,-0.1483,-0.1372,-0.1292,-0.1326,-0.1366,-0.1081,-0.1019,-0.0883,-0.1097,-0.084,-0.1363,-0.151,-0.1557,-0.1699,-0.1601,0,0,0,0,0]},{"header":{"parameterUnit":"m.s-1","parameterCategory":2,"la1":30.2991,"la2":30.254,"lo1":-89.0895,"lo2":-89.0444,"dy":0.0017,"dx":0.0017,"nx":28,"ny":28,"refTime":"2024-08-19T03:00:00:Z","depth":"2","parameterNumber":3,"parameterNumberName":"V-component_of_CURRENTS"},"data":[0,0,0,0,0,0,0,0,0,0,0,0,0,0,0,0,0,0,0,0,0,0,0,0,0,0,0,0,0,0,0,0,0,0,0,0,0,0,0,0,0,0,0,0,0,0,0,0,0,0,0,0,0,0,0,0,0,0,-0.0181,-0.018,0,-0.0131,-0.0131,-0.013,-0.0077,-0.0076,-0.0076,-0.0075,0.0093,0.0096,0.01,0,0,0,0,0,0,0,0,0,0,0,0,0,-0.0178,-0.0178,-0.0181,-0.018,-0.018,-0.0131,-0.0131,-0.013,-0.0077,-0.0076,-0.0076,-0.0075,0.0091,0.0096,0.0101,0,0,0,0,0,0,0,0,0,0,0,0,0,-0.0158,-0.0179,-0.0181,-0.0149,-0.0145,-0.0131,-0.013,-0.0129,-0.0077,-0.0076,-0.0075,-0.0075,0.009,0.0096,0.0101,0.0118,0,0,0.0119,0.0122,0,0,0,0,0,0,0,0,-0.0159,-0.0158,-0.0154,-0.0151,-0.0147,-0.011,-0.0068,-0.0041,-0.0078,-0.0102,-0.0075,-0.0074,0.0034,0.0045,0.0052,0.0126,0.0133,0.012,0.0123,0.0126,0.0127,0,0,0,0,0,0,0,-0.0161,-0.0159,-0.016,-0.0153,-0.0149,-0.0119,-0.0115,-0.0063,-0.0036,-0.01,-0.0096,-0.0093,0.0037,0.0046,0.0057,0.0136,0.0119,0.0125,0.0128,0.013,0.0334,0.0336,0,0,0,0,0,0,-0.0173,-0.0161,-0.0161,-0.0158,-0.0152,-0.012,-0.0116,-0.0122,-0.004,-0.0027,-0.0094,-0.0091,0.0036,0.005,0.0063,0.0115,0.0126,0.0131,0.0134,0.0332,0.0334,0.0336,0,0,0,0,0,0,-0.0174,-0.0174,-0.0163,-0.0159,-0.0155,-0.0122,-0.0129,-0.0122,-0.0114,-0.0037,-0.0022,-0.0094,0.0037,0.0055,0.0122,0.0121,0.0134,0.0139,0.033,0.0333,0.0335,0.0203,0,0,0,0,0,0,-0.0174,-0.0175,-0.0181,-0.016,-0.0156,-0.0166,-0.0129,-0.0121,-0.0114,-0.011,-0.0031,-0.0015,0.0039,0.0113,0.0128,0.013,0.0143,0.0327,0.0331,0.0334,0.0205,0.0201,0.0198,0,0,0,0,0,-0.0174,-0.0198,-0.0182,-0.0181,-0.0167,-0.0167,-0.0162,-0.0133,-0.0115,-0.0121,-0.0051,-0.0018,0.0148,0.0118,0.0136,0.0139,0.0326,0.033,0.0334,0.0207,0.0202,0.0198,0,0,0,0,0,0,-0.0205,-0.0194,-0.0176,-0.0195,-0.0183,-0.0158,-0.016,-0.0142,-0.0096,-0.0086,-0.0008,0.0014,0.0077,0.0137,0.0103,0.0218,0.0248,0.0256,0.0146,0.0142,0.0139,0.0112,0.0148,0,0,0,0,0,-0.0214,-0.0224,-0.0207,-0.022,-0.0217,-0.0189,-0.0184,-0.017,-0.0129,-0.011,-0.0054,0.0029,0.0108,0.0145,0.0218,0.0265,0.0309,0.0291,0.0287,0.0283,0.028,0.0336,0.0335,0.0351,0.0351,0.035,0,0,-0.0229,-0.0224,-0.0229,-0.0226,-0.0211,-0.0217,-0.0183,-0.0189,-0.0184,-0.0096,-0.0065,0.0011,0.0121,0.018,0.0215,0.0227,0.0303,0.0288,0.0283,0.0283,0.034,0.0338,0.0336,0.0353,0.0353,0.0352,0,0,-0.0272,-0.026,-0.0283,-0.0277,-0.0268,-0.0247,-0.0253,-0.0233,-0.0212,-0.0175,-0.0096,-0.0024,0.0077,0.0153,0.021,0.0235,0.0281,0.0268,0.0219,0.0272,0.027,0.0268,0.0306,0.0309,0.0264,0.0264,0.0264,0,-0.0289,-0.0314,-0.029,-0.031,-0.0306,-0.0265,-0.0286,-0.0262,-0.022,-0.0195,-0.0175,-0.0012,0.0067,0.016,0.0173,0.022,0.0253,0.021,0.026,0.026,0.026,0.03,0.0305,0.0258,0.0259,0.0259,0.026,0,-0.0348,-0.0362,-0.0377,-0.0378,-0.0372,-0.0387,-0.0351,-0.0335,-0.03,-0.0265,-0.0183,-0.0079,0.0021,0.0061,0.0122,0.0181,0.0202,0.0238,0.0248,0.0249,0.0293,0.03,0.025,0.0252,0.0253,0.0255,0,0,-0.0403,-0.0415,-0.0421,-0.043,-0.0411,-0.0418,-0.0399,-0.0368,-0.0351,-0.0294,-0.0261,-0.0128,-0.0078,-0.0007,0.0078,0.0125,0.0151,0.0171,0.0177,0.0168,0.0253,0.0274,0.0285,0.0181,0.0182,0.0183,0.0274,0,-0.0453,-0.0506,-0.0491,-0.0526,-0.0545,-0.0495,-0.0482,-0.0444,-0.0391,-0.0349,-0.024,-0.017,-0.01,-0.0056,0.0001,0.0127,0.0167,0.0123,0.0291,0.0296,0.0281,0.0293,0.027,0.0351,0.0281,0.0283,0.0283,0,-0.0516,-0.0541,-0.0589,-0.0595,-0.0598,-0.0605,-0.0567,-0.0552,-0.0468,-0.0427,-0.0344,-0.0257,-0.0151,-0.0106,0.007,0.0034,0.0129,0.0211,0.0217,0.0289,0.0331,0.035,0.0367,0.0296,0.0295,0.0294,0.0293,0,-0.0571,-0.0608,-0.0645,-0.065,-0.0648,-0.065,-0.064,-0.0576,-0.0564,-0.0475,-0.0449,-0.0315,-0.0246,-0.0113,0.0064,0.0065,0.0239,0.027,0.0376,0.0379,0.0422,0.0426,0.0375,0.0375,0.0374,0.0374,0.0374,0,-0.0628,-0.0661,-0.0678,-0.0702,-0.0745,-0.0714,-0.073,-0.0696,-0.0645,-0.063,-0.0499,-0.0447,-0.0248,-0.0116,0.0035,0.0227,0.0222,0.0369,0.0407,0.0377,0.0377,0.0388,0.0388,0.0378,0.0377,0.0376,0.0376,0,-0.0681,-0.0689,-0.0743,-0.0764,-0.0776,-0.0807,-0.0818,-0.0821,-0.0757,-0.0733,-0.0711,-0.0547,-0.0361,-0.0162,0.0067,0.0192,0.0372,0.0437,0.0379,0.041,0.0479,0.0472,0.0566,0.0568,0.0569,0.057,0.0571,0,-0.0712,-0.0745,-0.0806,-0.0848,-0.0864,-0.0901,-0.0926,-0.089,-0.0887,-0.0786,-0.0778,-0.0598,-0.044,-0.0099,0.0146,0.0407,0.0413,0.0517,0.0528,0.0473,0.0501,0.0492,0.0483,0.0531,0.0532,0.0532,0.0533,0,-0.0773,-0.0793,-0.0839,-0.0931,-0.098,-0.1029,-0.1055,-0.1072,-0.1013,-0.0951,-0.083,-0.0691,-0.036,-0.0055,0.0264,0.0408,0.0476,0.0535,0.0508,0.0481,0.0446,0.0471,0.0463,0.0537,0.0536,0.0536,0.0536,0.0536,-0.0816,-0.0868,-0.0932,-0.1014,-0.1076,-0.1132,-0.1158,-0.1145,-0.1116,-0.0981,-0.0866,-0.0605,-0.0338,0.0155,0.0364,0.055,0.0553,0.061,0.0606,0.0602,0.0577,0.0546,0.0649,0.065,0.065,0.065,0.065,0,-0.0868,-0.0924,-0.1012,-0.1103,-0.1172,-0.1184,-0.1222,-0.1201,-0.1138,-0.0955,-0.0777,-0.0453,-0.0109,0.0162,0.0472,0.0651,0.0631,0.0666,0.0614,0.0609,0.0605,0.0577,0.0652,0.0652,0.0653,0.0653,0,0,-0.0897,-0.0988,-0.1033,-0.1157,-0.1214,-0.1266,-0.1275,-0.1209,-0.1079,-0.0868,-0.0648,-0.037,-0.0059,0.0163,0.0377,0.0531,0.0521,0.0534,0.0515,0.0424,0.0418,0.0556,0.0506,0,0,0,0,0]}],[{"header":{"parameterUnit":"m.s-1","parameterCategory":2,"la1":30.2991,"la2":30.254,"lo1":-89.0895,"lo2":-89.0444,"dy":0.0017,"dx":0.0017,"nx":28,"ny":28,"refTime":"2024-08-19T03:00:00:Z","depth":"4","parameterNumber":2,"parameterNumberName":"U-component_of_CURRENTS"},"data":[0,0,0,0,0,0,0,0,0,0,0,0,0,0,0,0,0,0,0,0,0,0,0,0,0,0,0,0,0,0,0,0,0,0,0,0,0,0,0,0,0,0,0,0,0,0,0,0,0,0,0,0,0,0,0,0,0,0,-0.1723,-0.1724,0,-0.1725,-0.1725,-0.1724,-0.1718,-0.1719,-0.1719,-0.172,-0.1633,-0.1631,-0.1628,0,0,0,0,0,0,0,0,0,0,0,0,0,-0.1603,-0.1606,-0.1723,-0.1724,-0.1725,-0.1725,-0.1725,-0.1724,-0.1718,-0.1719,-0.1719,-0.172,-0.1634,-0.1631,-0.1627,0,0,0,0,0,0,0,0,0,0,0,0,0,-0.1627,-0.1606,-0.1723,-0.1728,-0.1729,-0.1726,-0.1725,-0.1724,-0.1718,-0.1719,-0.172,-0.1721,-0.1636,-0.1631,-0.1627,-0.1581,0,0,-0.1614,-0.1612,0,0,0,0,0,0,0,0,-0.1626,-0.1631,-0.1727,-0.1728,-0.1729,-0.173,-0.1651,-0.1675,-0.1717,-0.1713,-0.172,-0.1721,-0.1663,-0.1656,-0.1643,-0.1577,-0.1573,-0.1613,-0.1611,-0.1609,-0.1608,0,0,0,0,0,0,0,-0.1625,-0.163,-0.1715,-0.1728,-0.1729,-0.1694,-0.1698,-0.1655,-0.1674,-0.1713,-0.1715,-0.1729,-0.1662,-0.1647,-0.1641,-0.1572,-0.1613,-0.161,-0.1607,-0.1605,-0.1523,-0.1523,0,0,0,0,0,0,-0.1647,-0.1629,-0.1715,-0.1716,-0.1689,-0.1696,-0.1701,-0.1722,-0.1676,-0.1674,-0.1728,-0.1729,-0.1654,-0.1646,-0.1638,-0.1646,-0.1609,-0.1605,-0.1602,-0.1522,-0.1523,-0.1523,0,0,0,0,0,0,-0.1645,-0.1655,-0.1715,-0.1679,-0.1685,-0.1699,-0.1721,-0.1721,-0.174,-0.1691,-0.1684,-0.1753,-0.1655,-0.1644,-0.1623,-0.164,-0.1603,-0.1599,-0.1522,-0.1523,-0.1523,-0.1621,0,0,0,0,0,0,-0.1641,-0.1654,-0.1681,-0.1681,-0.1689,-0.173,-0.1721,-0.1721,-0.175,-0.1751,-0.1708,-0.17,-0.1655,-0.163,-0.1619,-0.1634,-0.1596,-0.1521,-0.1522,-0.1523,-0.1617,-0.1625,-0.1631,0,0,0,0,0,-0.1637,-0.1667,-0.1682,-0.1693,-0.1724,-0.1732,-0.1731,-0.1737,-0.1751,-0.1757,-0.1733,-0.1703,-0.1627,-0.1627,-0.1614,-0.1628,-0.1521,-0.1522,-0.1523,-0.1614,-0.1623,-0.1631,0,0,0,0,0,0,-0.1625,-0.167,-0.1687,-0.1729,-0.1742,-0.1735,-0.1752,-0.1758,-0.1745,-0.1756,-0.1705,-0.1693,-0.1681,-0.1639,-0.1641,-0.1605,-0.157,-0.1568,-0.1643,-0.1651,-0.1658,-0.1652,-0.1592,0,0,0,0,0,-0.164,-0.1675,-0.1703,-0.1736,-0.1753,-0.176,-0.177,-0.1778,-0.1769,-0.1767,-0.1735,-0.1701,-0.1667,-0.1652,-0.161,-0.159,-0.1572,-0.159,-0.1598,-0.1604,-0.1589,-0.1589,-0.1595,-0.1526,-0.1526,-0.1526,0,0,-0.1644,-0.1675,-0.1695,-0.1736,-0.175,-0.1766,-0.1766,-0.1797,-0.18,-0.1756,-0.1749,-0.1725,-0.1667,-0.1646,-0.1637,-0.162,-0.1621,-0.1605,-0.1611,-0.1592,-0.159,-0.1597,-0.1603,-0.1527,-0.1527,-0.1527,0,0,-0.1659,-0.1703,-0.1736,-0.1756,-0.1799,-0.1793,-0.1814,-0.1826,-0.1827,-0.1818,-0.1792,-0.1773,-0.1724,-0.1682,-0.1654,-0.1671,-0.1659,-0.1679,-0.1708,-0.171,-0.1716,-0.172,-0.1741,-0.1747,-0.1683,-0.1683,-0.1683,0,-0.1666,-0.1711,-0.1742,-0.1777,-0.1797,-0.1812,-0.1838,-0.1832,-0.1831,-0.1829,-0.1828,-0.1774,-0.1726,-0.1698,-0.1705,-0.1684,-0.1705,-0.1686,-0.1721,-0.1725,-0.1728,-0.1748,-0.1753,-0.1688,-0.1687,-0.1687,-0.1686,0,-0.1694,-0.1741,-0.1763,-0.1808,-0.1828,-0.1855,-0.1865,-0.1874,-0.1879,-0.187,-0.1863,-0.181,-0.1776,-0.177,-0.1738,-0.1744,-0.176,-0.1736,-0.1706,-0.1742,-0.176,-0.1764,-0.1694,-0.1693,-0.1691,-0.169,0,0,-0.167,-0.1766,-0.1773,-0.181,-0.1853,-0.1869,-0.188,-0.1886,-0.1902,-0.1891,-0.1904,-0.1842,-0.1841,-0.1808,-0.1785,-0.1783,-0.1827,-0.1784,-0.1782,-0.1817,-0.1873,-0.1736,-0.1727,-0.1838,-0.1838,-0.1838,-0.189,0,-0.1679,-0.1748,-0.179,-0.1839,-0.1872,-0.19,-0.1908,-0.192,-0.192,-0.1932,-0.1899,-0.1893,-0.185,-0.1859,-0.1848,-0.1834,-0.1837,-0.1816,-0.182,-0.182,-0.1703,-0.1724,-0.1839,-0.1893,-0.1893,-0.1894,-0.1894,0,-0.1678,-0.1729,-0.1789,-0.1869,-0.1889,-0.1917,-0.1948,-0.1963,-0.1975,-0.1981,-0.1978,-0.1966,-0.1952,-0.1918,-0.1903,-0.1912,-0.1892,-0.1878,-0.1879,-0.1708,-0.1687,-0.1837,-0.19,-0.19,-0.1899,-0.1899,-0.1899,0,-0.1623,-0.1722,-0.177,-0.1798,-0.1883,-0.1917,-0.1953,-0.1978,-0.1995,-0.2023,-0.2041,-0.2031,-0.203,-0.2013,-0.1961,-0.1959,-0.1958,-0.1943,-0.1799,-0.1792,-0.186,-0.1854,-0.1922,-0.1922,-0.1922,-0.1922,-0.1921,0,-0.159,-0.1637,-0.1762,-0.1787,-0.185,-0.1918,-0.197,-0.1998,-0.2045,-0.2058,-0.2072,-0.2065,-0.2058,-0.2046,-0.2007,-0.1907,-0.1987,-0.1795,-0.1782,-0.1905,-0.1902,-0.1866,-0.1858,-0.1923,-0.1923,-0.1923,-0.1922,0,-0.1514,-0.1596,-0.1669,-0.1785,-0.1829,-0.1874,-0.1987,-0.2007,-0.2067,-0.209,-0.2104,-0.2112,-0.2081,-0.206,-0.2029,-0.1936,-0.1875,-0.1818,-0.1973,-0.197,-0.1709,-0.1707,-0.1674,-0.1669,-0.1665,-0.1662,-0.1659,0,-0.1478,-0.151,-0.1657,-0.1699,-0.176,-0.1849,-0.1895,-0.1994,-0.2013,-0.2084,-0.2075,-0.2083,-0.2062,-0.1915,-0.1911,-0.1835,-0.1786,-0.1766,-0.1698,-0.1686,-0.1679,-0.1682,-0.1685,-0.1653,-0.1652,-0.1651,-0.165,0,-0.1401,-0.1469,-0.1525,-0.1619,-0.1691,-0.1763,-0.1845,-0.1855,-0.1945,-0.2033,-0.1972,-0.1919,-0.1877,-0.1814,-0.1762,-0.1702,-0.1788,-0.1723,-0.1731,-0.1667,-0.166,-0.1657,-0.1665,-0.1636,-0.1638,-0.1639,-0.164,0,-0.1341,-0.1363,-0.1445,-0.151,-0.1598,-0.1628,-0.17,-0.1722,-0.1762,-0.1848,-0.1829,-0.1823,-0.1867,-0.1745,-0.1703,-0.1628,-0.1582,-0.1516,-0.1533,-0.1549,-0.1471,-0.1442,-0.1331,0,0,0,0,0,-0.127,-0.1277,-0.1328,-0.139,-0.1469,-0.1517,-0.1632,-0.1699,-0.1811,-0.1719,-0.1765,-0.171,-0.1611,-0.1615,-0.1499,-0.1631,-0.1592,-0.1492,-0.1529,-0.1559,-0.1575,-0.1489,0,0,0,0,0,0,-0.1219,-0.1261,-0.1281,-0.1267,-0.1278,-0.135,-0.1413,-0.1496,-0.1461,-0.1569,-0.1522,-0.1594,-0.1523,-0.1633,-0.1456,-0.1456,-0.1441,-0.1506,-0.1501,-0.155,-0.1565,-0.1578,-0.1494,0,0,0,0,0]},{"header":{"parameterUnit":"m.s-1","parameterCategory":2,"la1":30.2991,"la2":30.254,"lo1":-89.0895,"lo2":-89.0444,"dy":0.0017,"dx":0.0017,"nx":28,"ny":28,"refTime":"2024-08-19T03:00:00:Z","depth":"4","parameterNumber":3,"parameterNumberName":"V-component_of_CURRENTS"},"data":[0,0,0,0,0,0,0,0,0,0,0,0,0,0,0,0,0,0,0,0,0,0,0,0,0,0,0,0,0,0,0,0,0,0,0,0,0,0,0,0,0,0,0,0,0,0,0,0,0,0,0,0,0,0,0,0,0,0,-0.0136,-0.0136,0,-0.0122,-0.0122,-0.0122,-0.0093,-0.0092,-0.0091,-0.0091,-0.0091,-0.0092,-0.0092,0,0,0,0,0,0,0,0,0,0,0,0,0,-0.0124,-0.0125,-0.0136,-0.0136,-0.0136,-0.0122,-0.0122,-0.0122,-0.0093,-0.0092,-0.0091,-0.009,-0.0091,-0.0092,-0.0092,0,0,0,0,0,0,0,0,0,0,0,0,0,-0.0123,-0.0125,-0.0136,-0.0119,-0.0117,-0.0122,-0.0122,-0.0122,-0.0093,-0.0092,-0.0091,-0.009,-0.0091,-0.0092,-0.0093,-0.0119,0,0,-0.0096,-0.0096,0,0,0,0,0,0,0,0,-0.0123,-0.0123,-0.0122,-0.012,-0.0118,-0.0107,-0.0118,-0.0121,-0.0093,-0.0103,-0.0091,-0.0089,-0.0098,-0.0098,-0.0099,-0.0119,-0.0119,-0.0096,-0.0096,-0.0097,-0.0097,0,0,0,0,0,0,0,-0.0123,-0.0124,-0.0132,-0.0122,-0.0119,-0.0107,-0.0106,-0.0118,-0.0108,-0.0102,-0.01,-0.0097,-0.0097,-0.0098,-0.0099,-0.0119,-0.0096,-0.0096,-0.0097,-0.0097,-0.0176,-0.0178,0,0,0,0,0,0,-0.0125,-0.0124,-0.0132,-0.0131,-0.0117,-0.0108,-0.0107,-0.0113,-0.0107,-0.0105,-0.0098,-0.0096,-0.0097,-0.0098,-0.0099,-0.0111,-0.0097,-0.0098,-0.0098,-0.0175,-0.0177,-0.0178,0,0,0,0,0,0,-0.0125,-0.0126,-0.0133,-0.0126,-0.0125,-0.0109,-0.0116,-0.0113,-0.0113,-0.0103,-0.0101,-0.0101,-0.0096,-0.0097,-0.0114,-0.0111,-0.0098,-0.0099,-0.0173,-0.0175,-0.0178,-0.0146,0,0,0,0,0,0,-0.0125,-0.0127,-0.0133,-0.0126,-0.0126,-0.0143,-0.0117,-0.0113,-0.0113,-0.011,-0.0106,-0.0105,-0.0096,-0.0112,-0.0115,-0.0112,-0.01,-0.0171,-0.0174,-0.0177,-0.0145,-0.0147,-0.0149,0,0,0,0,0,-0.0125,-0.0145,-0.0133,-0.0134,-0.0135,-0.0143,-0.0143,-0.0127,-0.0114,-0.0123,-0.0117,-0.0105,-0.0132,-0.0114,-0.0117,-0.0114,-0.017,-0.0173,-0.0177,-0.0145,-0.0147,-0.0149,0,0,0,0,0,0,-0.0148,-0.0143,-0.0131,-0.0149,-0.0146,-0.0138,-0.0144,-0.0134,-0.0137,-0.0136,-0.0121,-0.012,-0.0134,-0.0143,-0.0124,-0.0152,-0.0151,-0.0155,-0.0126,-0.0128,-0.013,-0.0115,-0.01,0,0,0,0,0,-0.0154,-0.0164,-0.0157,-0.017,-0.017,-0.0157,-0.0158,-0.0152,-0.0151,-0.0151,-0.0145,-0.015,-0.0153,-0.0154,-0.0166,-0.0181,-0.015,-0.0187,-0.0189,-0.019,-0.0184,-0.0128,-0.0122,-0.019,-0.019,-0.019,0,0,-0.0166,-0.0164,-0.017,-0.0175,-0.0169,-0.018,-0.0156,-0.0167,-0.0172,-0.0153,-0.0163,-0.0157,-0.0162,-0.0171,-0.0179,-0.0174,-0.0157,-0.0194,-0.0194,-0.0188,-0.013,-0.0123,-0.0116,-0.0192,-0.0192,-0.0191,0,0,-0.02,-0.0194,-0.0214,-0.0214,-0.0213,-0.0204,-0.0208,-0.0206,-0.0199,-0.0213,-0.0194,-0.0182,-0.0207,-0.0186,-0.0184,-0.0209,-0.017,-0.0227,-0.0213,-0.0158,-0.0151,-0.0144,-0.0089,-0.0078,-0.0223,-0.0223,-0.0223,0,-0.0213,-0.0235,-0.0221,-0.024,-0.024,-0.0216,-0.0236,-0.0231,-0.0233,-0.0222,-0.0221,-0.0208,-0.0208,-0.0184,-0.0191,-0.0206,-0.0171,-0.0194,-0.0154,-0.0146,-0.014,-0.0086,-0.0073,-0.0222,-0.0222,-0.0222,-0.0222,0,-0.0259,-0.0275,-0.0288,-0.0295,-0.0296,-0.0312,-0.0296,-0.0295,-0.0281,-0.0263,-0.0244,-0.0227,-0.0211,-0.021,-0.0207,-0.0164,-0.0153,-0.0158,-0.0133,-0.0129,-0.0075,-0.0062,-0.0221,-0.0221,-0.0221,-0.0222,0,0,-0.0299,-0.0316,-0.0322,-0.0332,-0.0326,-0.0336,-0.0333,-0.0319,-0.0307,-0.0288,-0.0262,-0.0243,-0.021,-0.0206,-0.0184,-0.0133,-0.0051,-0.0125,-0.0122,-0.0043,0.0079,0.0048,0.0059,-0.0038,-0.0036,-0.0034,0.0101,0,-0.0337,-0.0384,-0.0377,-0.041,-0.0427,-0.0397,-0.0396,-0.0376,-0.0346,-0.0316,-0.0259,-0.024,-0.0215,-0.0201,-0.014,-0.0081,-0.0018,-0.0087,0.0038,0.0042,0.0038,0.0072,-0.0028,0.0111,0.0114,0.0116,0.0118,0,-0.0384,-0.0408,-0.0451,-0.046,-0.0464,-0.0479,-0.0453,-0.0451,-0.0389,-0.0363,-0.0299,-0.0255,-0.0173,-0.0164,-0.0014,-0.0057,0.0011,0.0066,0.0073,0.0043,0.0034,0.0101,0.0141,0.0139,0.0138,0.0136,0.0135,0,-0.0419,-0.0457,-0.0491,-0.0498,-0.0505,-0.0513,-0.0513,-0.0467,-0.046,-0.0386,-0.0358,-0.0251,-0.0201,-0.0089,0.0023,0.0012,0.0188,0.0183,0.0229,0.0228,0.0205,0.0196,0.0295,0.0295,0.0294,0.0294,0.0294,0,-0.0456,-0.0488,-0.0517,-0.0539,-0.058,-0.0561,-0.058,-0.0554,-0.051,-0.0488,-0.0387,-0.0332,-0.018,-0.0064,0.0038,0.0177,0.0206,0.0247,0.0266,0.0211,0.0201,0.0216,0.0204,0.0299,0.0298,0.0297,0.0296,0,-0.0485,-0.0503,-0.0553,-0.0584,-0.0601,-0.0631,-0.0652,-0.0652,-0.0596,-0.0559,-0.0537,-0.0384,-0.0227,-0.0075,0.0112,0.0185,0.0317,0.0355,0.0294,0.0304,0.0322,0.0311,0.0436,0.0436,0.0436,0.0436,0.0436,0,-0.0502,-0.0531,-0.0601,-0.0643,-0.0666,-0.071,-0.0735,-0.0709,-0.0696,-0.0586,-0.0561,-0.0403,-0.0292,-0.0021,0.0119,0.0327,0.0339,0.0412,0.0367,0.0334,0.034,0.0328,0.0316,0.0436,0.0436,0.0436,0.0437,0,-0.0535,-0.0564,-0.0606,-0.0698,-0.0751,-0.0797,-0.0824,-0.0822,-0.0762,-0.0714,-0.0556,-0.0401,-0.0222,-0.002,0.0136,0.0277,0.0369,0.0414,0.0415,0.0372,0.0336,0.0339,0.0328,0.0437,0.0437,0.0437,0.0437,0,-0.0562,-0.0604,-0.0669,-0.0744,-0.0815,-0.0855,-0.0868,-0.0827,-0.08,-0.0664,-0.0613,-0.0399,-0.0268,-0.0045,0.0099,0.0233,0.026,0.0297,0.0304,0.0305,0.0209,0.014,0.0214,0,0,0,0,0,-0.0581,-0.0633,-0.0711,-0.0788,-0.0856,-0.0891,-0.0908,-0.0897,-0.0838,-0.0732,-0.0667,-0.0493,-0.0234,-0.0107,0.0024,0.0064,0.0251,0.0218,0.0288,0.0439,0.0439,0.0344,0,0,0,0,0,0,-0.0598,-0.0672,-0.0712,-0.0804,-0.0859,-0.0921,-0.0931,-0.0894,-0.0816,-0.073,-0.0584,-0.0478,-0.0229,-0.0311,0.0023,0.0065,0.0123,0.0348,0.035,0.044,0.0439,0.0439,0.0341,0,0,0,0,0]}]]